Retour au catalogue

UFO 2

USA 95

ActifMilitaireGEO
NORAD 22787·PAYLOAD·🇺🇸 United States

Lancé Sep 3, 1993 depuis Cape Canaveral Space Force Station

Loading…

TLE

FraisSource: Space-Track

Époque: Sep 14, 2026, 00:08 UTC

1 22787U 93056A   26257.00586551  .00000118  00000-0  00000-0 0  9991
2 22787  11.9265   3.0474 0002284 243.9725 136.7523  1.00270145119444

Suivez UFO 2 en temps réel avec AllMySat

Download on the App Store